(503976) = 2004 SZ52 = 2017 SK9

Discovered at Kitt Peak on 2000-12-01 by Spacewatch.

Orbit

Orbit type: Main Belt

Note: WebGL enabled browser required.

epoch2024-03-31.0
epoch JD2460400.5
perihelion date2021-12-03.37293
perihelion JD2459551.87293
argument of perihelion (°)139.83563
ascending node (°)213.53772
inclination (°)5.08328
eccentricity0.2646523
perihelion distance (AU)1.9461773
Tisserand w.r.t. Jupiter3.3
ΔV w.r.t. Earth (km/sec)8.9
semimajor axis (AU)2.6466084
mean anomaly (°)194.26125
mean daily motion (°/day)0.22891240
aphelion distance (AU)3.347
period (years)4.31
P-vector [x]0.99191768
P-vector [y]-0.12666884
P-vector [z]0.00736996
Q-vector [x]0.11705978
Q-vector [y]0.93598777
Q-vector [z]0.33199987
absolute magnitude17.7
phase slope0.15
uncertainty0
referenceMPEC 2024-F14
observations used167
oppositions10
arc length (days)8507
first opposition used2000
last opposition used2024
residual rms (arc-secs)0.80
perturbers coarse indicatorM-v
perturbers precise indicator003Ek
first observation date used2000-12-01.0
last observation date used2024-03-17.0
computer nameMPCLINUX
JD of orbit computation2458050.205567
perihelion JD uncertainty (days)8.7809E-05
argument of perihelion uncertainty (°)7.0138E-05
ascending node uncertainty (°)6.1934E-05
inclination uncertainty (°)9.3372E-06
eccentricity uncertainty 9.5369E-08
perihelion distance uncertainty (AU)2.5262E-07
Minimum Orbit Intersection Distances (in AU)
for orbit epoch: 2460400.5, reference: E2024-F14
Mercury1.57769
Venus1.22693
Earth0.94466
Mars0.56788
Jupiter2.11338
Saturn6.04424
Uranus15.1083
Neptune27.1675

Observations

170 total observations over interval: 2000 12 01.23518 – 2024 03 17.512358
These data are available for download (format description).

Date (UT) J2000 RA J2000 Dec Magn Location Ref
2000 12 01.23518 03 54 50.70 +15 46 52.1 20.7 V 691 – Steward Observatory, Kitt Peak-Spacewatch MPS 818995
2000 12 01.26391 03 54 49.08 +15 46 44.2 20.7 V 691 – Steward Observatory, Kitt Peak-Spacewatch MPS 818995
2000 12 01.29302 03 54 47.42 +15 46 36.3 21.0 V 691 – Steward Observatory, Kitt Peak-Spacewatch MPS 818995
2000 12 30.06778 03 38 33.30 +14 30 49.1 22.3 V 691 – Steward Observatory, Kitt Peak-Spacewatch MPS 818995
2000 12 30.09477 03 38 32.97 +14 30 48.8 21.9 V 691 – Steward Observatory, Kitt Peak-Spacewatch MPS 818995
2000 12 30.12155 03 38 32.71 +14 30 47.3 21.6 V 691 – Steward Observatory, Kitt Peak-Spacewatch MPS 818995
2004 09 09.29461 23 49 14.67 +06 11 37.5 19.1   644 – Palomar Mountain/NEAT MPS 115358
2004 09 09.36912 23 49 11.80 +06 11 08.1 19.0   644 – Palomar Mountain/NEAT MPS 115358
2004 09 09.41117 23 49 10.19 +06 10 51.7 19.5   644 – Palomar Mountain/NEAT MPS 115358
2004 09 10.23847 23 48 41.01 +06 05 22.6 19.7   704 – Lincoln Laboratory ETS, New Mexico MPS 115358
2004 09 10.25029 23 48 40.43 +06 05 17.5 20.6   704 – Lincoln Laboratory ETS, New Mexico MPS 115358
2004 09 10.26220 23 48 40.00 +06 05 12.0 20.2   704 – Lincoln Laboratory ETS, New Mexico MPS 115358
2004 09 10.27404 23 48 39.62 +06 05 08.1 19.9   704 – Lincoln Laboratory ETS, New Mexico MPS 115358
2004 09 10.28630 23 48 39.10 +06 05 02.7 19.9   704 – Lincoln Laboratory ETS, New Mexico MPS 115358
2004 09 14.26153 23 46 11.18 +05 36 47.4 19.2 R 699 – Lowell Observatory-LONEOS MPS 120555
2004 09 14.28098 23 46 10.32 +05 36 38.1   699 – Lowell Observatory-LONEOS MPS 120555
2004 09 14.30048 23 46 09.53 +05 36 29.8   699 – Lowell Observatory-LONEOS MPS 120555
2004 09 14.31994 23 46 08.75 +05 36 20.7   699 – Lowell Observatory-LONEOS MPS 120555
2004 09 16.26382 23 44 54.25 +05 21 32.6 19.1 R 699 – Lowell Observatory-LONEOS MPS 115358
2004 09 16.28172 23 44 53.46 +05 21 24.6   699 – Lowell Observatory-LONEOS MPS 115358
2004 09 16.29960 23 44 52.69 +05 21 16.6   699 – Lowell Observatory-LONEOS MPS 115358
2004 09 16.31748 23 44 51.94 +05 21 08.5   699 – Lowell Observatory-LONEOS MPS 115358
2004 09 18.25131 23 43 37.23 +05 05 52.9 19.3   704 – Lincoln Laboratory ETS, New Mexico MPS 115358
2004 09 18.26346 23 43 36.73 +05 05 47.5 19.4   704 – Lincoln Laboratory ETS, New Mexico MPS 115358
2004 09 18.27564 23 43 36.25 +05 05 41.9 19.7   704 – Lincoln Laboratory ETS, New Mexico MPS 115358
2004 09 18.28778 23 43 35.81 +05 05 36.1 19.5   704 – Lincoln Laboratory ETS, New Mexico MPS 115358
2004 09 18.29999 23 43 35.23 +05 05 30.3 19.6   704 – Lincoln Laboratory ETS, New Mexico MPS 115358
2004 09 22.23068 23 41 04.40 +04 33 20.2 19.3   704 – Lincoln Laboratory ETS, New Mexico MPS 115358
2004 09 22.24281 23 41 03.91 +04 33 12.3 19.7   704 – Lincoln Laboratory ETS, New Mexico MPS 115358
2004 09 22.25494 23 41 03.38 +04 33 06.0 19.8   704 – Lincoln Laboratory ETS, New Mexico MPS 115358
2004 09 22.26708 23 41 02.86 +04 33 00.7 19.7   704 – Lincoln Laboratory ETS, New Mexico MPS 115358
2004 09 22.27925 23 41 02.40 +04 32 54.9 19.7   704 – Lincoln Laboratory ETS, New Mexico MPS 115358
2004 09 24.23190 23 39 49.41 +04 16 31.2 19.2   704 – Lincoln Laboratory ETS, New Mexico MPS 115358
2004 09 24.24430 23 39 48.86 +04 16 24.6 19.9   704 – Lincoln Laboratory ETS, New Mexico MPS 115358
2004 09 24.25671 23 39 48.40 +04 16 16.7 20.1   704 – Lincoln Laboratory ETS, New Mexico MPS 115358
2004 09 24.26909 23 39 47.91 +04 16 12.4 19.8   704 – Lincoln Laboratory ETS, New Mexico MPS 115358
2004 09 24.28152 23 39 47.43 +04 16 06.3 19.7   704 – Lincoln Laboratory ETS, New Mexico MPS 115358
2012 05 29.30993 16 26 39.80 -17 03 49.7 20.5 V G96 – Mt. Lemmon Survey MPS 818995
2012 05 29.31578 16 26 39.44 -17 03 48.3 20.6 V G96 – Mt. Lemmon Survey MPS 818995
2012 05 29.32163 16 26 39.12 -17 03 46.9 20.3 V G96 – Mt. Lemmon Survey MPS 818995
2012 05 29.32749 16 26 38.76 -17 03 45.5 20.5 V G96 – Mt. Lemmon Survey MPS 818995
2012 06 15.27331 16 10 49.04 -16 01 17.4 21.0 V G96 – Mt. Lemmon Survey MPS 818995
2012 06 15.27848 16 10 48.75 -16 01 16.3 20.5 V G96 – Mt. Lemmon Survey MPS 818995
2012 06 15.28374 16 10 48.46 -16 01 15.1 20.6 V G96 – Mt. Lemmon Survey MPS 818995
2012 06 15.28898 16 10 48.21 -16 01 14.0 20.8 V G96 – Mt. Lemmon Survey MPS 818995
2013 10 26.44478 05 19 58.07 +19 28 49.0 21.1 V G96 – Mt. Lemmon Survey MPS 818995
2013 10 26.45176 05 19 57.95 +19 28 48.3 21.0 V G96 – Mt. Lemmon Survey MPS 818995
2013 10 26.45874 05 19 57.87 +19 28 46.7 21.1 V G96 – Mt. Lemmon Survey MPS 818995
2013 10 26.46572 05 19 57.79 +19 28 44.5 21.7 V G96 – Mt. Lemmon Survey MPS 818995
2013 11 27.21788 04 57 58.05 +17 24 19.9   691 – Steward Observatory, Kitt Peak-Spacewatch MPS 818995
2013 11 27.23560 04 57 57.03 +17 24 16.0   691 – Steward Observatory, Kitt Peak-Spacewatch MPS 818995
2013 11 27.25332 04 57 55.83 +17 24 12.2   691 – Steward Observatory, Kitt Peak-Spacewatch MPS 818995
2013 11 27.35984 04 57 49.441 +17 23 48.71 20.7 w F51 – Pan-STARRS 1, Haleakala MPS 818995
2013 11 27.37509 04 57 48.476 +17 23 45.31 20.6 w F51 – Pan-STARRS 1, Haleakala MPS 818995
2013 11 27.39030 04 57 47.515 +17 23 41.88 20.5 w F51 – Pan-STARRS 1, Haleakala MPS 818995
2013 11 27.40564 04 57 46.538 +17 23 38.38 20.4 w F51 – Pan-STARRS 1, Haleakala MPS 818995
2016 05 01.27803 14 30 44.91 -13 54 43.9 21.9   W84 – Cerro Tololo-DECam MPS 1579710
2016 05 01.28124 14 30 44.73 -13 54 42.7   W84 – Cerro Tololo-DECam MPS 1579710
2016 05 01.28443 14 30 44.56 -13 54 41.7   W84 – Cerro Tololo-DECam MPS 1579710
2016 05 01.28759 14 30 44.39 -13 54 40.5   W84 – Cerro Tololo-DECam MPS 1579710
2016 05 01.29080 14 30 44.22 -13 54 39.4   W84 – Cerro Tololo-DECam MPS 1579710
2016 05 03.31011 14 28 57.10 -13 43 05.7 21.8   W84 – Cerro Tololo-DECam MPS 1579710
2016 05 03.31329 14 28 56.93 -13 43 04.6   W84 – Cerro Tololo-DECam MPS 1579710
2016 05 03.31648 14 28 56.76 -13 43 03.5   W84 – Cerro Tololo-DECam MPS 1579710
2016 05 03.31965 14 28 56.59 -13 43 02.4   W84 – Cerro Tololo-DECam MPS 1579710
2016 05 03.32284 14 28 56.42 -13 43 01.2   W84 – Cerro Tololo-DECam MPS 1579710
2017 09 17.83523 01 04 43.81 +11 42 39.3 19.9 V C42 – Xingming Observatory, Mt. Nanshan MPS 817155
2017 09 17.91594 01 04 41.47 +11 42 12.0 20.1 V C42 – Xingming Observatory, Mt. Nanshan MPS 817155
2017 09 19.53755 01 03 55.833 +11 32 35.32 19.9 w F51 – Pan-STARRS 1, Haleakala MPS 817155
2017 09 19.53885 01 03 55.791 +11 32 34.84 19.9 w F51 – Pan-STARRS 1, Haleakala MPS 817155
2017 09 19.55044 01 03 55.411 +11 32 30.45 19.9 w F51 – Pan-STARRS 1, Haleakala MPS 817155
2017 09 19.55172 01 03 55.373 +11 32 30.02 19.7 w F51 – Pan-STARRS 1, Haleakala MPS 817155
2017 09 19.56320 01 03 54.999 +11 32 25.71 19.7 w F51 – Pan-STARRS 1, Haleakala MPS 817155
2017 09 19.56448 01 03 54.956 +11 32 25.26 19.7 w F51 – Pan-STARRS 1, Haleakala MPS 817155
2017 09 19.57593 01 03 54.583 +11 32 20.97 19.7 w F51 – Pan-STARRS 1, Haleakala MPS 817156
2017 09 19.57722 01 03 54.546 +11 32 20.44 19.8 w F51 – Pan-STARRS 1, Haleakala MPS 817156
2017 09 21.16509 01 03 06.33 +11 22 15.7 18.9 R J04 – ESA Optical Ground Station, Tenerife MPS 819351
2017 09 21.17678 01 03 05.94 +11 22 11.7 19.7 R J04 – ESA Optical Ground Station, Tenerife MPS 819351
2017 09 21.18847 01 03 05.50 +11 22 06.3 19.7 R J04 – ESA Optical Ground Station, Tenerife MPS 819351
2017 09 21.20016 01 03 05.10 +11 22 01.8 19.8 R J04 – ESA Optical Ground Station, Tenerife MPS 819351
2017 09 24.33827 01 01 21.10 +11 00 33.5 19.4 V 703 – Catalina Sky Survey MPS 819351
2017 09 24.34407 01 01 20.84 +11 00 30.6 20.2 V 703 – Catalina Sky Survey MPS 819351
2017 09 24.34999 01 01 20.61 +11 00 28.3 19.5 V 703 – Catalina Sky Survey MPS 819351
2017 09 24.35580 01 01 20.36 +11 00 25.4 19.4 V 703 – Catalina Sky Survey MPS 819351
2017 09 28.34127 00 58 54.04 +10 30 27.5 19.6 V 703 – Catalina Sky Survey MPS 818995
2017 09 28.34730 00 58 53.78 +10 30 25.5 19.7 V 703 – Catalina Sky Survey MPS 818995
2017 09 28.35331 00 58 53.56 +10 30 22.4 19.3 V 703 – Catalina Sky Survey MPS 818995
2017 09 28.35926 00 58 53.34 +10 30 19.3 19.6 V 703 – Catalina Sky Survey MPS 818995
2017 09 28.68031 00 58 41.10 +10 27 47.9 19.6 R D29 – Purple Mountain Observatory, XuYi Station MPS 818995
